Regional Weather Roundup
Issued by NWS

Home | Current Version | Previous Version | Graphics & Text | Print | Product List | Glossary On
Versions: 1 2 3 4 5 6 7 8 9 10 11 12 13 14 15 16 17 18 19 20 21 22 23 24 25 26 27 28 29 30 31 32 33 34 35 36 37 38 39 40 41 42 43 44 45 46 47 48 49 50
000
ASUS44 KMEG 202000
RWRTN
TENNESSEE HOURLY STATE WEATHER ROUNDUP
NATIONAL WEATHER SERVICE MEMPHIS TN
200 PM CST SAT DEC 20 2014

TNZ002-004-019-021-049-052-054-088>092-202100-
WEST TENNESSEE

CITY           SKY/WX    TMP DP  RH WIND       PRES   REMARKS
MEMPHIS INTL   CLOUDY    50  32  50 N5        30.22F
NWS MEMPHIS      N/A     49 N/A N/A MISG        N/A
JACKSON        MOSUNNY   49  30  48 N5        30.22F
DYERSBURG      PTSUNNY   46  25  42 NE6       30.24F
UNION CITY     CLOUDY    41  30  65 CALM      30.22F
PARIS          CLOUDY    41  28  60 NE5       30.23F
LEXINGTON      CLOUDY    43  28  56 NE5       30.21F
SAVANNAH       SUNNY     52  30  43 CALM      30.21S
$$

TNZ008-025-027-028-033-062-065-066-202100-
NORTH MIDDLE TENNESSEE

CITY           SKY/WX    TMP DP  RH WIND       PRES   REMARKS
NASHVILLE      CLOUDY    45  27  49 NW6       30.23F
CLARKSVILLE    CLOUDY    40  28  62 CALM      30.24F
COOKEVILLE     SUNNY     46  27  46 NE6       30.19S
CROSSVILLE     PTSUNNY   46  29  51 W7        30.16S
$$

TNZ061-075-076-078-094-096-097-202100-
SOUTH MIDDLE TENNESSEE

CITY           SKY/WX    TMP DP  RH WIND       PRES   REMARKS
FAYETTEVILLE   SUNNY     48  28  46 MISG      30.17F
TULLAHOMA      SUNNY     48  28  46 VRB6      30.19S
WINCHESTER     SUNNY     48  30  49 N6        30.18F
SHELBYVILLE    SUNNY     48  30  49 N6        30.20F
$$

TNZ017-018-042-046-047-202100-
NORTHEAST TENNESSEE

CITY           SKY/WX    TMP DP  RH WIND       PRES   REMARKS
TRI CITIES     CLOUDY    42  36  79 CALM      30.16S
ELIZABETHTON   CLOUDY    39  36  87 SW6       30.15S WCI  35
$$

TNZ012-013-036-069-073-074-202100-
CENTRAL EAST TENNESSEE

CITY           SKY/WX    TMP DP  RH WIND       PRES   REMARKS
KNOXVILLE      CLOUDY    42  33  70 CALM      30.19S
OAK RIDGE      CLOUDY    46  31  55 CALM      30.20R
GATLINBURG     CLOUDY    39  34  81 CALM      30.18S
$$

TNZ083-085-099-202100-
SOUTHEAST TENNESSEE

CITY           SKY/WX    TMP DP  RH WIND       PRES   REMARKS
CHATTANOOGA    PTSUNNY   48  32  53 NE3       30.19F
$$

SKY/WX REPORTED AS FAIR MEANS FEW OR NO CLOUDS BELOW
12 THOUSAND FEET.



USA.gov is the U.S. government's official web portal to all federal, state and local government web resources and services.